Tracking 31013 objects as of 11-Jul-2025
HD Live streaming from Space Station
objects crossing your sky now

IRS P2 R/B

Track IRS P2 R/B now!
10-day predictions


NORAD ID: 23324
Int'l Code: 1994-068B
Perigee: 800.2 km
Apogee: 882.9 km
Inclination: 98.9 °
Period: 101.6 minutes
Semi major axis: 7212 km
RCS: 6.3284 m2 (large)
Launch date: October 15, 1994
Source: India (IND)
Launch site: SRIHARIKOTA (SRI)

Note: This is a ROCKET BODY
Your satellite tracking list
Your tracking list is empty




NASA's NSSDC Master Catalog

Two Line Element Set (TLE):
1 23324U 94068B   25191.48417874  .00000013  00000-0  27906-4 0  9994
2 23324  98.8859 261.3888 0057376 168.2205 192.0326 14.17329490589130
Source of the keplerian elements: AFSPC